Location: Pardubice
(50.0330°N, 15.7830°E)
Time: 10:50:09
(UTC+02:00)

Vanguard 2 Rocket - All Passes

Search period start: 07 October 2024 00:00
Search period end: 17 October 2024 00:00
Orbit: 553 x 3299 km, 32.9° (Epoch: 06 October)

Date Brightness Start Highest point End Pass type
(mag) Time Alt. Az. Time Alt. Az. Time Alt. Az.
14 Oct - 19:24:20 10° SSW 19:24:54 10° S 19:25:28 10° S visible
15 Oct - 18:19:40 10° SSW 18:22:03 12° S 18:24:08 10° SSE daylight
16 Oct - 17:15:34 10° SSW 17:19:04 14° S 17:21:57 10° SSE daylight
16 Oct - 19:29:24 10° SSW 19:30:43 11° SSW 19:31:56 10° S visible
